Showing default

TJS-4, 44637

Orbit data source: Space-Track

TJS-4, 44637 is a payload satellite owned by CASC (CN) in GEO that was launched on Thu, 17 Oct 2019 UTC via a CHANG ZHENG 3B launch vehicle from the Xichang Space Center, China (XSC). Payload-class satellites include a variety of spacecraft equipped with specific instruments for various scientific and technological missions. These include communications satellites like Starlink; space stations such as the ISS; scientific satellites like the Hubble; Earth observation satellites from companies like Planet Labs, Umbra, and HawkEye 360; GPS; miniature CubeSats for education and research; and military/defense satellites.

Not visible in the next 10 days
Identifier
44637, 2019-070A
Orbit
GEO
Country
Flag of CNCN / PRC
Related business
Manufacturer
CAST
Mission
Operational Defense Sigint
Bus & Motor
DFH-4?, DFH-4 LAE
Mass
~4,000 kg wet, ~2,500 kg dry
Launch date (UTC)
2019-10-17 (7 years ago)
Launch vehicle
CHANG ZHENG 3B
Launch site
Xichang Space Center, China (XSC)
Object type
Payload
Rocket body
Debris
Shape & HBR
Box + 2 Pan + 1 Dish, Unknown HBR
Radar Cross Section
35.403 m², Large (>1 m²)

Expand to show TLE details & history
Last TLE update: 21 hours ago

TLE from 21 hours ago
0 TJS-4
1 44637U 19070A   26145.52900513 -.00000171  00000-0  00000-0 0  9994
2 44637   0.0450 268.3577 0005405 123.1095 125.6123  1.00272730 24310
Epoch: 2026-05-25T12:41Z
TLE epoch observation values (Epoch: 2026-05-25T12:41:46.043Z)
Latitude
-0.0553°
Longitude
83.57491°
Altitude
35,799.077 km
Speed
3.074 km/s
True Right ascension
10h 28m 31s
True Declination
0° 03' 19"
Sunlit
Object was in daylight at epoch
Visualization orbit readout
Latitude
Unknown
Longitude
Unknown
Altitude
Unknown
Speed
Unknown
Apparent Right ascension
Unknown
Apparent Declination
Unknown
Sunlit
N/A
Visualization observer readout
Local Sidereal Time
19:07:40
Azimuth
Unknown
Elevation
Unknown
Doppler factor
Unknown
Orbital elements
Apogee altitude
35,810.191 km
Perigee altitude
35,764.61 km
Semi-major axis
42,165.537 km
Eccentricity
0.00054
Inclination
0.045°
RAAN
268.3577°
Arg. of periapsis
123.1095°
True anomaly
125.66263°
Mean anomaly
125.6123°
Eccentric anomaly
125.63747°
Mean motion
0.25067 °/min
Orbital period
1,436.14 mins
BSTAR
0
Loading maneuver chart data...
Computing Atmospheric mass density...
Loading historical data...
Loading historical data...
Loading historical data...
Loading historical data...
Loading historical data...
Loading historical data...
Loading historical data...
Other satellites on launch #70 in the year 2019 (2019-10-17 UTC)

Documentation

Showing up to 5 results
|